Location: Napier
(39.4830°S, 176.9170°E)
Time: 04:53:30
(UTC+13:00)

MetOp-B - Pass Details

Date: 24 January 2019
Orbit: 819 x 821 km, 98.7° (Epoch: 20 October)

Event Time Altitude Azimuth Distance (km) Brightness Sun altitude
Rises 23:11:53 0° 170° (S) 3,392 8.0 -23.6°
Reaches altitude 10° 23:14:15 10° 171° (S) 2,452 7.2 -23.9°
Maximum altitude 23:19:39 71° 253° (WSW) 878 4.3 -24.5°
Enters shadow 23:21:41 39° 326° (NW) 1,226 4.8 -24.7°
